| time (UTC) | temp F | wind direction | speed knots | gust knots | rain 1hr in | rain 24hr in | rain mn in | humidity % | barometer mb |
| 20260906152028 | 92 | 153 | 7.0 | 12.2 | 0.00 | 0.00 | 0.00 | 33 | 1017.8 |
| 20260906151024 | 93 | 166 | 4.3 | 9.6 | 0.00 | 0.00 | 0.00 | 32 | 1017.9 |
| 20260906150019 | 93 | 167 | 3.5 | 8.7 | 0.00 | 0.00 | 0.00 | 32 | 1017.8 |
| 20260906145035 | 93 | 156 | 4.3 | 9.6 | 0.00 | 0.00 | 0.00 | 32 | 1017.8 |
| 20260906144030 | 93 | 171 | 4.3 | 9.6 | 0.00 | 0.00 | 0.00 | 32 | 1017.7 |
| 20260906143025 | 93 | 164 | 5.2 | 11.3 | 0.00 | 0.00 | 0.00 | 32 | 1017.9 |
| 20260906142021 | 92 | 158 | 5.2 | 12.2 | 0.00 | 0.00 | 0.00 | 33 | 1017.9 |
| 20260906141016 | 93 | 182 | 5.2 | 12.2 | 0.00 | 0.00 | 0.00 | 32 | 1018.0 |
| 20260906140031 | 92 | 149 | 7.0 | 11.3 | 0.00 | 0.00 | 0.00 | 33 | 1017.9 |
| 20260906135027 | 94 | 162 | 7.8 | 12.2 | 0.00 | 0.00 | 0.00 | 32 | 1018.1 |
| 20260906134022 | 94 | 118 | 7.0 | 15.6 | 0.00 | 0.00 | 0.00 | 29 | 1017.9 |
| 20260906133017 | 94 | 128 | 7.8 | 12.2 | 0.00 | 0.00 | 0.00 | 28 | 1018.1 |
| 20260906132033 | 93 | 114 | 6.1 | 12.2 | 0.00 | 0.00 | 0.00 | 28 | 1018.3 |
| 20260906131029 | 93 | 159 | 4.3 | 8.7 | 0.00 | 0.00 | 0.00 | 30 | 1018.3 |
| 20260906130024 | 93 | 122 | 6.1 | 8.7 | 0.00 | 0.00 | 0.00 | 33 | 1018.3 |
| 20260906125019 | 93 | 97 | 4.3 | 7.8 | 0.00 | 0.00 | 0.00 | 30 | 1018.4 |
| 20260906124034 | 94 | 91 | 3.5 | 7.8 | 0.00 | 0.00 | 0.00 | 30 | 1018.5 |
| 20260906123030 | 94 | 92 | 2.6 | 11.3 | 0.00 | 0.00 | 0.00 | 27 | 1018.5 |
| 20260906122025 | 94 | 115 | 5.2 | 8.7 | 0.00 | 0.00 | 0.00 | 27 | 1018.6 |
| 20260906121021 | 95 | 95 | 2.6 | 7.8 | 0.00 | 0.00 | 0.00 | 28 | 1018.7 |
| 20260906120016 | 95 | 121 | 4.3 | 9.6 | 0.00 | 0.00 | 0.00 | 29 | 1018.6 |
| 20260906115032 | 96 | 141 | 3.5 | 7.0 | 0.00 | 0.00 | 0.00 | 27 | 1018.7 |
| 20260906114028 | 96 | 113 | 4.3 | 9.6 | 0.00 | 0.00 | 0.00 | 24 | 1018.7 |
| 20260906113023 | 96 | 129 | 2.6 | 5.2 | 0.00 | 0.00 | 0.00 | 23 | 1018.8 |
| 20260906112019 | 97 | 127 | 1.7 | 7.0 | 0.00 | 0.00 | 0.00 | 25 | 1018.8 |
| 20260906111054 | 96 | 107 | 1.7 | 6.1 | 0.00 | 0.00 | 0.00 | 25 | 1019.0 |
| 20260906110030 | 96 | 175 | 1.7 | 3.5 | 0.00 | 0.00 | 0.00 | 25 | 1019.1 |
| 20260906105045 | 96 | 117 | 0.9 | 3.5 | 0.00 | 0.00 | 0.00 | 25 | 1019.3 |
| 20260906104021 | 95 | 135 | 0.9 | 2.6 | 0.00 | 0.00 | 0.00 | 25 | 1019.4 |
| 20260906103036 | 94 | 104 | 0.9 | 2.6 | 0.00 | 0.00 | 0.00 | 27 | 1019.5 |
| 20260906102051 | 93 | 135 | 0.9 | 2.6 | 0.00 | 0.00 | 0.00 | 27 | 1019.5 |
| 20260906101026 | 92 | 61 | 0.0 | 1.7 | 0.00 | 0.00 | 0.00 | 29 | 1019.6 |
| 20260906100021 | 93 | 113 | 1.7 | 3.5 | 0.00 | 0.00 | 0.00 | 28 | 1019.6 |
| 20260906095057 | 93 | 140 | 0.0 | 1.7 | 0.00 | 0.00 | 0.00 | 28 | 1019.6 |
| 20260906094032 | 92 | 150 | 0.9 | 1.7 | 0.00 | 0.00 | 0.00 | 28 | 1019.8 |
| 20260906093027 | 92 | 133 | 0.0 | 1.7 | 0.00 | 0.00 | 0.00 | 28 | 1019.6 |
| 20260906092023 | 92 | 105 | 0.0 | 1.7 | 0.00 | 0.00 | 0.00 | 28 | 1019.7 |
| 20260906091018 | 89 | 39 | 0.0 | 0.9 | 0.00 | 0.00 | 0.00 | 30 | 1019.7 |
| 20260906090034 | 87 | 0.0 | 0.0 | 0.00 | 0.00 | 0.00 | 31 | 1019.7 | |
| 20260906085030 | 86 | 301 | 0.9 | 2.6 | 0.00 | 0.00 | 0.00 | 32 | 1019.6 |
| 20260906084025 | 85 | 347 | 0.9 | 1.7 | 0.00 | 0.00 | 0.00 | 33 | 1019.7 |
| 20260906083020 | 85 | 339 | 0.9 | 1.7 | 0.00 | 0.00 | 0.00 | 33 | 1019.6 |
| 20260906082015 | 85 | 300 | 0.9 | 3.5 | 0.00 | 0.00 | 0.00 | 33 | 1019.5 |
| 20260906081030 | 85 | 303 | 0.9 | 2.6 | 0.00 | 0.00 | 0.00 | 33 | 1019.4 |
| 20260906080026 | 84 | 281 | 1.7 | 2.6 | 0.00 | 0.00 | 0.00 | 33 | 1019.4 |
| 20260906075041 | 83 | 287 | 0.9 | 2.6 | 0.00 | 0.00 | 0.00 | 35 | 1019.3 |
| 20260906074036 | 82 | 347 | 0.9 | 2.6 | 0.00 | 0.00 | 0.00 | 37 | 1019.1 |
| 20260906073032 | 81 | 322 | 1.7 | 3.5 | 0.00 | 0.00 | 0.00 | 38 | 1019.2 |
| 20260906072027 | 80 | 8 | 0.0 | 1.7 | 0.00 | 0.00 | 0.00 | 40 | 1019.2 |
| 20260906071022 | 79 | 326 | 0.0 | 1.7 | 0.00 | 0.00 | 0.00 | 42 | 1019.2 |
| 20260906070018 | 79 | 334 | 0.0 | 0.9 | 0.00 | 0.00 | 0.00 | 43 | 1019.2 |
| 20260906065033 | 77 | 5 | 0.0 | 0.9 | 0.00 | 0.00 | 0.00 | 45 | 1019.2 |
| 20260906064049 | 76 | 302 | 0.9 | 3.5 | 0.00 | 0.00 | 0.00 | 47 | 1019.1 |
| 20260906063024 | 76 | 317 | 0.9 | 2.6 | 0.00 | 0.00 | 0.00 | 48 | 1019.1 |
| 20260906062019 | 75 | 331 | 0.0 | 1.7 | 0.00 | 0.00 | 0.00 | 48 | 1019.1 |
| 20260906061114 | 75 | 291 | 1.7 | 6.1 | 0.00 | 0.00 | 0.00 | 48 | 1019.0 |
| 20260906060030 | 75 | 290 | 1.7 | 5.2 | 0.00 | 0.00 | 0.00 | 48 | 1018.9 |
| 20260906055026 | 75 | 270 | 0.0 | 0.9 | 0.00 | 0.00 | 0.00 | 47 | 1018.8 |
| 20260906054041 | 75 | 306 | 0.9 | 2.6 | 0.00 | 0.00 | 0.00 | 47 | 1018.7 |
| 20260906053016 | 75 | 330 | 0.0 | 0.9 | 0.00 | 0.00 | 0.00 | 46 | 1018.6 |
| 20260906052032 | 75 | 330 | 0.0 | 1.7 | 0.00 | 0.00 | 0.00 | 45 | 1018.5 |
| 20260906051027 | 75 | 0.0 | 0.0 | 0.00 | 0.00 | 0.00 | 48 | 1018.4 | |
| 20260906050023 | 75 | 0.0 | 0.0 | 0.00 | 0.00 | 0.00 | 48 | 1018.4 | |
| 20260906045018 | 76 | 331 | 0.9 | 2.6 | 0.00 | 0.00 | 0.00 | 48 | 1018.3 |
| 20260906044033 | 76 | 313 | 1.7 | 5.2 | 0.00 | 0.00 | 0.00 | 47 | 1018.5 |
| 20260906043028 | 77 | 310 | 1.7 | 6.1 | 0.00 | 0.00 | 0.00 | 47 | 1018.5 |
| 20260906042024 | 76 | 311 | 3.5 | 7.8 | 0.00 | 0.00 | 0.00 | 50 | 1018.6 |
| 20260906041019 | 75 | 304 | 2.6 | 5.2 | 0.00 | 0.00 | 0.00 | 54 | 1018.7 |
| 20260906040055 | 75 | 289 | 0.9 | 2.6 | 0.00 | 0.00 | 0.00 | 53 | 1018.6 |
| 20260906035031 | 75 | 283 | 0.9 | 2.6 | 0.00 | 0.00 | 0.00 | 55 | 1018.5 |
| 20260906034026 | 74 | 0.0 | 0.0 | 0.00 | 0.00 | 0.00 | 58 | 1018.7 | |
| 20260906033022 | 75 | 0.0 | 0.0 | 0.00 | 0.00 | 0.00 | 56 | 1018.6 | |
| 20260906032017 | 76 | 332 | 0.0 | 0.9 | 0.00 | 0.00 | 0.00 | 55 | 1018.6 |
| 20260906031032 | 76 | 314 | 0.9 | 3.5 | 0.00 | 0.00 | 0.00 | 54 | 1018.7 |
| 20260906030028 | 76 | 296 | 0.9 | 3.5 | 0.00 | 0.00 | 0.00 | 54 | 1018.8 |
| 20260906025043 | 76 | 316 | 0.0 | 1.7 | 0.00 | 0.00 | 0.00 | 55 | 1018.7 |
| 20260906024019 | 76 | 300 | 0.9 | 1.7 | 0.00 | 0.00 | 0.00 | 54 | 1018.6 |
| 20260906023034 | 76 | 311 | 0.0 | 0.9 | 0.00 | 0.00 | 0.00 | 54 | 1018.7 |
| 20260906022029 | 76 | 316 | 0.9 | 0.9 | 0.00 | 0.00 | 0.00 | 54 | 1018.8 |
| 20260906021025 | 76 | 293 | 0.9 | 1.7 | 0.00 | 0.00 | 0.00 | 56 | 1018.8 |
| 20260906020020 | 76 | 0.0 | 0.0 | 0.00 | 0.00 | 0.00 | 59 | 1019.0 | |
| 20260906015036 | 76 | 0.0 | 0.0 | 0.00 | 0.00 | 0.00 | 61 | 1019.0 | |
| 20260906014031 | 77 | 0.0 | 0.0 | 0.00 | 0.00 | 0.00 | 62 | 1019.1 | |
| 20260906013027 | 76 | 0.0 | 0.0 | 0.00 | 0.00 | 0.00 | 62 | 1019.2 | |
| 20260906012042 | 77 | 0.0 | 0.0 | 0.00 | 0.00 | 0.00 | 62 | 1019.3 | |
| 20260906011018 | 77 | 0.0 | 0.0 | 0.00 | 0.00 | 0.00 | 62 | 1019.3 | |
| 20260906010033 | 77 | 0.0 | 0.0 | 0.00 | 0.00 | 0.00 | 62 | 1019.3 | |
| 20260906005028 | 77 | 279 | 0.9 | 2.6 | 0.00 | 0.00 | 0.00 | 62 | 1019.4 |
| 20260906004023 | 77 | 282 | 0.9 | 3.5 | 0.00 | 0.00 | 0.00 | 63 | 1019.2 |
| 20260906003019 | 77 | 0.0 | 0.0 | 0.00 | 0.00 | 0.00 | 68 | 1019.3 | |
| 20260906002034 | 77 | 0.0 | 0.0 | 0.00 | 0.00 | 0.00 | 67 | 1019.3 | |
| 20260906001029 | 78 | 0.0 | 0.0 | 0.00 | 0.00 | 0.00 | 65 | 1019.3 | |
| 20260906000024 | 78 | 354 | 0.9 | 0.9 | 0.00 | 0.00 | 0.00 | 63 | 1019.3 |
| 20260905235019 | 78 | 357 | 0.0 | 0.9 | 0.00 | 0.00 | 0.00 | 63 | 1019.3 |
| 20260905234035 | 79 | 334 | 0.0 | 0.9 | 0.00 | 0.00 | 0.00 | 64 | 1019.4 |
| 20260905233030 | 79 | 308 | 0.0 | 1.7 | 0.00 | 0.00 | 0.00 | 62 | 1019.6 |
| 20260905232025 | 79 | 321 | 0.0 | 0.9 | 0.00 | 0.00 | 0.00 | 63 | 1019.5 |
| 20260905231020 | 79 | 300 | 0.0 | 0.9 | 0.00 | 0.00 | 0.00 | 62 | 1019.6 |
| 20260905230015 | 79 | 339 | 0.0 | 0.9 | 0.00 | 0.00 | 0.00 | 64 | 1019.6 |
| 20260905225031 | 79 | 212 | 0.0 | 0.9 | 0.00 | 0.00 | 0.00 | 65 | 1019.6 |
| 20260905224026 | 80 | 313 | 0.0 | 1.7 | 0.00 | 0.00 | 0.00 | 64 | 1019.7 |
| 20260905223042 | 79 | 332 | 0.0 | 0.9 | 0.00 | 0.00 | 0.00 | 65 | 1019.8 |
| 20260905222017 | 79 | 334 | 0.0 | 0.9 | 0.00 | 0.00 | 0.00 | 65 | 1019.7 |
| 20260905221032 | 80 | 325 | 0.9 | 2.6 | 0.00 | 0.00 | 0.00 | 62 | 1019.7 |
| 20260905220028 | 80 | 290 | 0.9 | 2.6 | 0.00 | 0.00 | 0.00 | 58 | 1019.7 |
| 20260905215023 | 80 | 327 | 0.9 | 2.6 | 0.00 | 0.00 | 0.00 | 59 | 1019.8 |
| 20260905214018 | 80 | 324 | 0.9 | 2.6 | 0.00 | 0.00 | 0.00 | 60 | 1019.9 |
| 20260905213034 | 80 | 342 | 0.9 | 1.7 | 0.00 | 0.00 | 0.00 | 62 | 1019.8 |
| 20260905212029 | 80 | 347 | 0.9 | 1.7 | 0.00 | 0.00 | 0.00 | 63 | 1019.9 |
| 20260905211024 | 80 | 356 | 0.9 | 1.7 | 0.00 | 0.00 | 0.00 | 66 | 1019.9 |
| 20260905210019 | 79 | 347 | 0.9 | 1.7 | 0.00 | 0.00 | 0.00 | 67 | 1019.9 |
| 20260905205035 | 79 | 350 | 1.7 | 2.6 | 0.00 | 0.00 | 0.00 | 70 | 1020.0 |
| 20260905204030 | 80 | 355 | 0.9 | 1.7 | 0.00 | 0.00 | 0.00 | 71 | 1020.0 |
| 20260905203025 | 80 | 339 | 0.9 | 1.7 | 0.00 | 0.00 | 0.00 | 71 | 1020.0 |
| 20260905202020 | 80 | 348 | 1.7 | 2.6 | 0.00 | 0.00 | 0.00 | 70 | 1020.0 |
| 20260905201035 | 80 | 353 | 0.9 | 1.7 | 0.00 | 0.00 | 0.00 | 72 | 1019.9 |
| 20260905200031 | 80 | 352 | 0.9 | 1.7 | 0.00 | 0.00 | 0.00 | 73 | 1019.9 |
| 20260905195026 | 80 | 7 | 0.0 | 0.9 | 0.00 | 0.00 | 0.00 | 71 | 1019.8 |
| 20260905194021 | 81 | 7 | 0.9 | 0.9 | 0.00 | 0.00 | 0.00 | 72 | 1019.8 |
| 20260905193016 | 81 | 0.0 | 0.0 | 0.00 | 0.00 | 0.00 | 72 | 1019.6 | |
| 20260905192052 | 81 | 40 | 0.0 | 0.9 | 0.00 | 0.00 | 0.00 | 73 | 1019.6 |
| 20260905191027 | 81 | 17 | 0.9 | 1.7 | 0.00 | 0.00 | 0.00 | 73 | 1019.5 |
| 20260905190022 | 81 | 357 | 0.9 | 1.7 | 0.00 | 0.00 | 0.00 | 73 | 1019.4 |
| 20260905185018 | 81 | 69 | 0.0 | 0.9 | 0.00 | 0.00 | 0.00 | 74 | 1019.3 |
| 20260905184033 | 81 | 75 | 0.0 | 2.6 | 0.00 | 0.00 | 0.00 | 74 | 1019.3 |
| 20260905183029 | 81 | 78 | 0.0 | 0.9 | 0.00 | 0.00 | 0.00 | 73 | 1019.2 |
| 20260905182023 | 81 | 67 | 0.0 | 1.7 | 0.00 | 0.00 | 0.00 | 74 | 1019.3 |
| 20260905181019 | 81 | 94 | 1.7 | 2.6 | 0.00 | 0.00 | 0.00 | 74 | 1019.1 |
| 20260905180035 | 82 | 91 | 2.6 | 3.5 | 0.00 | 0.00 | 0.00 | 73 | 1019.1 |
| 20260905175030 | 82 | 80 | 0.9 | 3.5 | 0.00 | 0.00 | 0.00 | 72 | 1019.1 |
| 20260905174025 | 82 | 88 | 0.9 | 5.2 | 0.00 | 0.00 | 0.00 | 72 | 1019.0 |
| 20260905173021 | 83 | 90 | 1.7 | 5.2 | 0.00 | 0.00 | 0.00 | 70 | 1019.1 |
| 20260905172016 | 83 | 93 | 4.3 | 6.1 | 0.00 | 0.00 | 0.00 | 69 | 1019.0 |
| 20260905171051 | 83 | 97 | 2.6 | 7.0 | 0.00 | 0.00 | 0.00 | 68 | 1018.9 |
| 20260905170026 | 83 | 94 | 4.3 | 7.8 | 0.00 | 0.00 | 0.00 | 69 | 1018.8 |
| 20260905165021 | 84 | 107 | 4.3 | 7.8 | 0.00 | 0.00 | 0.00 | 68 | 1018.9 |
| 20260905164016 | 84 | 103 | 3.5 | 7.8 | 0.00 | 0.00 | 0.00 | 66 | 1018.7 |
| 20260905163031 | 84 | 104 | 5.2 | 9.6 | 0.00 | 0.00 | 0.00 | 65 | 1018.7 |
| 20260905162026 | 85 | 102 | 3.5 | 7.8 | 0.00 | 0.00 | 0.00 | 64 | 1018.7 |
| 20260905161021 | 86 | 113 | 3.5 | 8.7 | 0.00 | 0.00 | 0.00 | 62 | 1018.7 |
| 20260905160016 | 86 | 100 | 4.3 | 9.6 | 0.00 | 0.00 | 0.00 | 60 | 1018.6 |
| 20260905155031 | 86 | 122 | 3.5 | 9.6 | 0.00 | 0.00 | 0.00 | 57 | 1018.6 |
| 20260905154046 | 86 | 124 | 4.3 | 9.6 | 0.00 | 0.00 | 0.00 | 55 | 1018.6 |
| 20260905153021 | 86 | 99 | 4.3 | 11.3 | 0.00 | 0.00 | 0.00 | 55 | 1018.6 |